Time,TemperatureF,DewpointF,PressureIn,WindDirection,WindDirectionDegrees,WindSpeedMPH,WindSpeedGustMPH,Humidity,HourlyPrecipIn,Conditions,Clouds,dailyrainin,SoftwareType,DateUTC
2013-07-31 00:41:00,68.7,68.1,29.99,SSE,157,0.0,-999.0,98,-99.99,,,0.00,Acu-Link.com,2013-07-31 04:41:00,
2013-07-31 00:57:00,68.7,68.1,29.98,North,0,0.0,-999.0,98,-99.99,,,0.00,Acu-Link.com,2013-07-31 04:57:00,
2013-07-31 01:12:00,68.5,67.9,29.98,NNW,337,0.0,-999.0,98,-99.99,,,0.00,Acu-Link.com,2013-07-31 05:12:00,
2013-07-31 01:27:00,68.5,67.9,29.98,North,0,0.0,-999.0,98,-99.99,,,0.00,Acu-Link.com,2013-07-31 05:27:00,
2013-07-31 01:42:00,68.4,67.8,29.97,North,0,0.0,-999.0,98,-99.99,,,0.00,Acu-Link.com,2013-07-31 05:42:00,
2013-07-31 01:57:00,68.4,67.8,29.98,NNW,337,0.0,-999.0,98,-99.99,,,0.00,Acu-Link.com,2013-07-31 05:57:00,
2013-07-31 02:13:00,68.4,67.8,29.97,North,0,0.0,-999.0,98,-99.99,,,0.00,Acu-Link.com,2013-07-31 06:13:00,
2013-07-31 02:28:00,68.4,67.8,29.96,East,90,0.0,-999.0,98,-99.99,,,0.00,Acu-Link.com,2013-07-31 06:28:00,
2013-07-31 02:43:00,68.4,67.8,29.96,ESE,112,0.0,-999.0,98,-99.99,,,0.00,Acu-Link.com,2013-07-31 06:43:00,
2013-07-31 02:58:00,68.4,67.8,29.96,North,0,0.0,-999.0,98,-99.99,,,0.00,Acu-Link.com,2013-07-31 06:58:00,
2013-07-31 03:13:00,68.4,67.8,29.95,NNE,22,0.0,-999.0,98,-99.99,,,0.00,Acu-Link.com,2013-07-31 07:13:00,
2013-07-31 03:29:00,68.4,67.8,29.95,East,90,0.0,-999.0,98,-99.99,,,0.00,Acu-Link.com,2013-07-31 07:29:00,
2013-07-31 03:44:00,68.4,67.8,29.95,NNE,22,0.0,-999.0,98,-99.99,,,0.00,Acu-Link.com,2013-07-31 07:44:00,
2013-07-31 03:59:00,68.4,67.8,29.95,SE,135,0.0,-999.0,98,-99.99,,,0.01,Acu-Link.com,2013-07-31 07:59:00,
2013-07-31 04:14:00,68.4,67.8,29.95,SSE,157,0.0,-999.0,98,-99.99,,,0.02,Acu-Link.com,2013-07-31 08:14:00,
2013-07-31 04:29:00,68.4,67.8,29.95,SSE,157,0.0,-999.0,98,-99.99,,,0.05,Acu-Link.com,2013-07-31 08:29:00,
2013-07-31 04:45:00,68.4,67.8,29.94,ENE,67,0.0,-999.0,98,-99.99,,,0.08,Acu-Link.com,2013-07-31 08:45:00,
2013-07-31 05:00:00,68.4,67.8,29.96,SE,135,0.0,-999.0,98,-99.99,,,0.09,Acu-Link.com,2013-07-31 09:00:00,
2013-07-31 05:15:00,68.2,67.6,29.95,SE,135,0.0,-999.0,98,-99.99,,,0.10,Acu-Link.com,2013-07-31 09:15:00,
2013-07-31 05:30:00,68.0,67.4,29.95,NE,45,0.0,-999.0,98,-99.99,,,0.18,Acu-Link.com,2013-07-31 09:30:00,
2013-07-31 05:45:00,67.5,66.9,29.94,NE,45,0.0,-999.0,98,-99.99,,,0.19,Acu-Link.com,2013-07-31 09:45:00,
2013-07-31 06:01:00,66.9,66.3,29.94,NE,45,0.0,-999.0,98,-99.99,,,0.19,Acu-Link.com,2013-07-31 10:01:00,
2013-07-31 06:31:00,66.4,65.8,29.95,ESE,112,0.0,-999.0,98,-99.99,,,0.20,Acu-Link.com,2013-07-31 10:31:00,
2013-07-31 06:46:00,66.4,65.8,29.96,SSE,157,0.0,-999.0,98,-99.99,,,0.20,Acu-Link.com,2013-07-31 10:46:00,
2013-07-31 07:01:00,66.4,65.8,29.96,SSE,157,0.0,-999.0,98,-99.99,,,0.20,Acu-Link.com,2013-07-31 11:01:00,
2013-07-31 07:16:00,66.4,65.8,29.96,ESE,112,0.0,-999.0,98,-99.99,,,0.20,Acu-Link.com,2013-07-31 11:16:00,
2013-07-31 07:32:00,66.4,65.8,29.97,ESE,112,0.0,-999.0,98,-99.99,,,0.20,Acu-Link.com,2013-07-31 11:32:00,
2013-07-31 07:47:00,66.2,65.6,29.97,WNW,292,0.0,-999.0,98,-99.99,,,0.20,Acu-Link.com,2013-07-31 11:47:00,
2013-07-31 08:02:00,65.8,65.2,29.96,West,270,0.0,-999.0,98,-99.99,,,0.20,Acu-Link.com,2013-07-31 12:02:00,
2013-07-31 08:17:00,65.8,65.2,29.97,SE,135,0.0,-999.0,98,-99.99,,,0.20,Acu-Link.com,2013-07-31 12:17:00,
2013-07-31 08:32:00,65.8,65.2,29.96,WNW,292,1.1,-999.0,98,-99.99,,,0.24,Acu-Link.com,2013-07-31 12:32:00,
2013-07-31 08:48:00,66.0,65.4,29.97,ESE,112,0.0,-999.0,98,-99.99,,,0.24,Acu-Link.com,2013-07-31 12:48:00,
2013-07-31 09:03:00,66.4,65.8,29.97,ESE,112,0.0,-999.0,98,-99.99,,,0.24,Acu-Link.com,2013-07-31 13:03:00,
2013-07-31 09:18:00,66.9,66.3,29.97,NNW,337,0.0,-999.0,98,-99.99,,,0.24,Acu-Link.com,2013-07-31 13:18:00,
2013-07-31 09:33:00,67.5,66.9,29.96,NNE,22,0.0,-999.0,98,-99.99,,,0.24,Acu-Link.com,2013-07-31 13:33:00,
2013-07-31 09:49:00,68.2,67.6,29.96,NE,45,0.0,-999.0,98,-99.99,,,0.24,Acu-Link.com,2013-07-31 13:49:00,
2013-07-31 10:04:00,68.2,67.6,29.97,SSE,157,0.0,-999.0,98,-99.99,,,0.24,Acu-Link.com,2013-07-31 14:04:00,
2013-07-31 10:19:00,68.7,68.1,29.96,NE,45,0.0,-999.0,98,-99.99,,,0.24,Acu-Link.com,2013-07-31 14:19:00,
2013-07-31 10:34:00,68.9,68.3,29.96,NE,45,0.0,-999.0,98,-99.99,,,0.24,Acu-Link.com,2013-07-31 14:34:00,
2013-07-31 10:49:00,69.8,69.2,29.94,SSE,157,1.1,-999.0,98,-99.99,,,0.24,Acu-Link.com,2013-07-31 14:49:00,
2013-07-31 11:05:00,70.0,69.4,29.95,SE,135,0.0,-999.0,98,-99.99,,,0.24,Acu-Link.com,2013-07-31 15:05:00,
2013-07-31 11:20:00,70.5,69.9,29.94,NE,45,0.0,-999.0,98,-99.99,,,0.24,Acu-Link.com,2013-07-31 15:20:00,
2013-07-31 11:35:00,71.6,71.0,29.94,NNW,337,0.0,-999.0,98,-99.99,,,0.24,Acu-Link.com,2013-07-31 15:35:00,
2013-07-31 11:50:00,72.0,71.4,29.93,NE,45,1.1,-999.0,98,-99.99,,,0.24,Acu-Link.com,2013-07-31 15:50:00,
2013-07-31 12:05:00,70.5,69.9,29.93,NNE,22,0.0,-999.0,98,-99.99,,,0.24,Acu-Link.com,2013-07-31 16:05:00,
2013-07-31 12:21:00,71.2,70.6,29.93,West,270,0.0,-999.0,98,-99.99,,,0.24,Acu-Link.com,2013-07-31 16:21:00,
2013-07-31 12:36:00,70.9,70.3,29.93,WNW,292,0.0,-999.0,98,-99.99,,,0.24,Acu-Link.com,2013-07-31 16:36:00,
2013-07-31 13:06:00,71.8,71.2,29.92,NNW,337,1.1,-999.0,98,-99.99,,,0.24,Acu-Link.com,2013-07-31 17:06:00,
2013-07-31 13:21:00,74.1,73.5,29.92,East,90,1.1,-999.0,98,-99.99,,,0.24,Acu-Link.com,2013-07-31 17:21:00,
2013-07-31 13:37:00,73.9,73.3,29.91,SW,225,0.0,-999.0,98,-99.99,,,0.24,Acu-Link.com,2013-07-31 17:37:00,
2013-07-31 13:52:00,73.2,72.6,29.91,NE,45,0.0,-999.0,98,-99.99,,,0.24,Acu-Link.com,2013-07-31 17:52:00,
2013-07-31 14:07:00,73.2,72.6,29.90,West,270,0.0,-999.0,98,-99.99,,,0.24,Acu-Link.com,2013-07-31 18:07:00,
2013-07-31 14:22:00,73.6,73.0,29.90,NW,315,0.0,-999.0,98,-99.99,,,0.24,Acu-Link.com,2013-07-31 18:22:00,
2013-07-31 14:37:00,75.0,74.4,29.89,ESE,112,0.0,-999.0,98,-99.99,,,0.24,Acu-Link.com,2013-07-31 18:37:00,
2013-07-31 14:53:00,74.5,73.9,29.88,SSE,157,1.7,-999.0,98,-99.99,,,0.25,Acu-Link.com,2013-07-31 18:53:00,
2013-07-31 15:08:00,74.7,74.1,29.88,South,180,2.2,-999.0,98,-99.99,,,0.25,Acu-Link.com,2013-07-31 19:08:00,
2013-07-31 15:23:00,76.1,75.5,29.86,ENE,67,0.0,-999.0,98,-99.99,,,0.25,Acu-Link.com,2013-07-31 19:23:00,
2013-07-31 15:38:00,76.1,75.5,29.86,ESE,112,0.0,-999.0,98,-99.99,,,0.25,Acu-Link.com,2013-07-31 19:38:00,
2013-07-31 15:54:00,76.5,75.9,29.85,SSW,202,0.0,-999.0,98,-99.99,,,0.25,Acu-Link.com,2013-07-31 19:54:00,
2013-07-31 16:09:00,75.7,75.1,29.84,SE,135,0.0,-999.0,98,-99.99,,,0.25,Acu-Link.com,2013-07-31 20:09:00,
2013-07-31 16:24:00,75.7,75.1,29.83,SSW,202,0.0,-999.0,98,-99.99,,,0.25,Acu-Link.com,2013-07-31 20:24:00,
2013-07-31 16:39:00,75.7,75.1,29.83,East,90,0.0,-999.0,98,-99.99,,,0.25,Acu-Link.com,2013-07-31 20:39:00,
2013-07-31 16:54:00,77.0,76.4,29.83,NE,45,0.0,-999.0,98,-99.99,,,0.25,Acu-Link.com,2013-07-31 20:54:00,
2013-07-31 17:10:00,74.1,73.5,29.82,North,0,1.7,-999.0,98,-99.99,,,0.25,Acu-Link.com,2013-07-31 21:10:00,
2013-07-31 17:25:00,74.3,73.7,29.82,ENE,67,1.7,-999.0,98,-99.99,,,0.25,Acu-Link.com,2013-07-31 21:25:00,
2013-07-31 17:40:00,74.8,74.2,29.81,NNE,22,0.0,-999.0,98,-99.99,,,0.25,Acu-Link.com,2013-07-31 21:40:00,
2013-07-31 17:55:00,73.8,73.2,29.81,South,180,0.0,-999.0,98,-99.99,,,0.25,Acu-Link.com,2013-07-31 21:55:00,
2013-07-31 18:11:00,75.4,74.8,29.80,North,0,0.0,-999.0,98,-99.99,,,0.25,Acu-Link.com,2013-07-31 22:11:00,
2013-07-31 18:26:00,76.6,76.0,29.79,West,270,0.0,-999.0,98,-99.99,,,0.25,Acu-Link.com,2013-07-31 22:26:00,
2013-07-31 18:56:00,76.3,75.7,29.78,NE,45,0.0,-999.0,98,-99.99,,,0.25,Acu-Link.com,2013-07-31 22:56:00,
2013-07-31 19:12:00,74.7,74.1,29.78,SE,135,0.0,-999.0,98,-99.99,,,0.25,Acu-Link.com,2013-07-31 23:12:00,
2013-07-31 19:27:00,73.8,73.2,29.79,SSE,157,0.0,-999.0,98,-99.99,,,0.25,Acu-Link.com,2013-07-31 23:27:00,
2013-07-31 19:42:00,73.2,72.6,29.80,SE,135,0.0,-999.0,98,-99.99,,,0.25,Acu-Link.com,2013-07-31 23:42:00,
2013-07-31 19:57:00,72.9,72.3,29.80,SE,135,0.0,-999.0,98,-99.99,,,0.25,Acu-Link.com,2013-07-31 23:57:00,
2013-07-31 20:12:00,72.5,71.9,29.80,WNW,292,0.0,-999.0,98,-99.99,,,0.25,Acu-Link.com,2013-08-01 00:12:00,
2013-07-31 20:28:00,72.1,71.5,29.81,SSE,157,0.0,-999.0,98,-99.99,,,0.25,Acu-Link.com,2013-08-01 00:28:00,
2013-07-31 20:43:00,71.4,70.8,29.81,West,270,1.7,-999.0,98,-99.99,,,0.25,Acu-Link.com,2013-08-01 00:43:00,
2013-07-31 20:58:00,70.9,70.3,29.80,West,270,2.2,-999.0,98,-99.99,,,0.25,Acu-Link.com,2013-08-01 00:58:00,
2013-07-31 21:13:00,70.5,69.9,29.82,East,90,0.0,-999.0,98,-99.99,,,0.25,Acu-Link.com,2013-08-01 01:13:00,
2013-07-31 21:28:00,70.3,69.7,29.81,SSE,157,0.0,-999.0,98,-99.99,,,0.25,Acu-Link.com,2013-08-01 01:28:00,
2013-07-31 21:44:00,70.0,69.4,29.81,ESE,112,0.0,-999.0,98,-99.99,,,0.25,Acu-Link.com,2013-08-01 01:44:00,
2013-07-31 21:59:00,70.0,69.4,29.82,NE,45,0.0,-999.0,98,-99.99,,,0.25,Acu-Link.com,2013-08-01 01:59:00,
2013-07-31 22:14:00,69.8,69.2,29.81,ENE,67,0.0,-999.0,98,-99.99,,,0.25,Acu-Link.com,2013-08-01 02:14:00,
2013-07-31 22:29:00,69.8,69.2,29.81,East,90,0.0,-999.0,98,-99.99,,,0.25,Acu-Link.com,2013-08-01 02:29:00,
2013-07-31 22:44:00,69.6,69.0,29.81,ESE,112,0.0,-999.0,98,-99.99,,,0.25,Acu-Link.com,2013-08-01 02:44:00,
2013-07-31 23:00:00,69.6,69.0,29.81,WNW,292,0.0,-999.0,98,-99.99,,,0.25,Acu-Link.com,2013-08-01 03:00:00,
2013-07-31 23:15:00,69.4,68.8,29.81,East,90,0.0,-999.0,98,-99.99,,,0.25,Acu-Link.com,2013-08-01 03:15:00,
2013-07-31 23:30:00,69.3,68.7,29.81,North,0,0.0,-999.0,98,-99.99,,,0.25,Acu-Link.com,2013-08-01 03:30:00,
2013-07-31 23:45:00,69.3,68.7,29.80,NE,45,0.0,-999.0,98,-99.99,,,0.25,Acu-Link.com,2013-08-01 03:45:00,